Location: Cahas Mountain Overlook
(37.0833°N, 80.1000°W)
Time: 10:47:23
(UTC-04:00)

Vanguard 1 Rocket - Pass Details

Date: 15 February 2026
Orbit: 653 x 4214 km, 34.3° (Epoch: 15 March)

Event Time Altitude Azimuth Distance (km) Brightness Sun altitude
Rises 19:50:09 0° 285° (WNW) 6,772 13.2 -22.5°
Reaches altitude 10° 19:54:10 10° 281° (W) 6,131 12.7 -23.3°
Maximum altitude 20:14:45 53° 212° (SSW) 4,687 11.0 -27.3°
Enters shadow 20:37:46 12° 145° (SE) 6,831 11.4 -31.9°
